Weather History for KDRI - November, 2013

Change the Weather History Date:

Friday, November 22, 2013

  Actual Average (KPOE) Record (KPOE)
Temperature  
Mean Temperature 63 °F -  
Max Temperature 71 °F 64 °F 81 °F (2010)
Min Temperature 55 °F 45 °F 30 °F (2000)
Degree Days  
Heating Degree Days 2    
Growing Degree Days 13 (Base 50)    
Moisture  
Dew Point 64 °F    
Average Humidity 93    
Maximum Humidity 96    
Minimum Humidity 84    
Precipitation  
Precipitation 0.00 in - - ()
Sea Level Pressure  
Sea Level Pressure 30.20 in    
Wind  
Wind Speed 6 mph (ENE)    
Max Wind Speed 10 mph    
Max Gust Speed 18 mph    
Visibility 7 miles    
Events Rain    
Averages and records for this station are not official NWS values.
T = Trace of Precipitation, MM = Missing Value Source: NWS Daily Summary

Daily Weather History Graph

Daily Weather History Graph

Search for Another Location

Airport or City:

Trip Planner

Search our weather history database for the weather conditions in past years. The results will help you decide how hot, cold, wet, or windy it might be!

Date:

Astronomy

Nov. 22, 2013 Rise Set
Actual Time 6:46 AM CST 5:12 PM CST
Civil Twilight 6:20 AM CST 5:38 PM CST
Nautical Twilight 5:50 AM CST 6:08 PM CST
Astronomical Twilight 5:21 AM CST 6:37 PM CST
Moon 9:40 PM CST (11/22) 10:34 AM CST (11/22)
Length of Visible Light 11h 18m
Length of Day
10h 26m
Waning Gibbous, 78% of the Moon is Illuminated
Nov 22
Waning Gibbous
Nov 25
Last Quarter
Dec 2
New
Dec 9
First Quarter
Dec 17
Full

Hourly Weather History & Observations

Time (CST) Temp. Dew Point Humidity Pressure Visibility Wind Dir Wind Speed Gust Speed Precip Events Conditions
12:15 AM 71.6 °F 69.1 °F 92% 30.14 in 7.0 mi SE 6.9 mph - N/A   Overcast
12:35 AM 71.6 °F 68.9 °F 91% 30.14 in 7.0 mi SE 6.9 mph - N/A   Overcast
12:55 AM 71.4 °F 68.9 °F 92% 30.13 in 7.0 mi SE 5.8 mph - N/A   Overcast
1:15 AM 71.1 °F 68.9 °F 93% 30.13 in 5.0 mi SE 5.8 mph - N/A   Overcast
1:35 AM 70.9 °F 68.5 °F 92% 30.13 in 5.0 mi SE 6.9 mph - N/A   Overcast
1:55 AM 70.5 °F 68.7 °F 94% 30.13 in 3.0 mi SE 8.1 mph - N/A   Overcast
2:15 AM 70.2 °F 68.5 °F 95% 30.14 in 2.5 mi SE 5.8 mph - N/A   Overcast
2:35 AM 70.0 °F 68.5 °F 95% 30.14 in 1.8 mi SE 5.8 mph - N/A   Overcast
2:55 AM 69.8 °F 68.5 °F 96% 30.14 in 2.0 mi SE 5.8 mph - N/A   Overcast
3:15 AM 69.8 °F 68.5 °F 96% 30.14 in 2.0 mi SSE 5.8 mph - N/A   Overcast
3:35 AM 69.8 °F 68.4 °F 95% 30.13 in 2.5 mi SE 5.8 mph - N/A   Overcast
3:55 AM 69.8 °F 68.4 °F 95% 30.13 in 2.0 mi SE 5.8 mph - N/A   Overcast
4:15 AM 69.8 °F 68.2 °F 95% 30.13 in 1.8 mi SE 4.6 mph - N/A   Overcast
4:35 AM 69.8 °F 68.2 °F 95% 30.14 in 2.5 mi SE 5.8 mph - N/A   Overcast
4:55 AM 69.8 °F 68.2 °F 95% 30.16 in 2.5 mi SE 3.5 mph - N/A   Overcast
5:15 AM 69.6 °F 68.2 °F 95% 30.16 in 3.0 mi Calm Calm - N/A   Overcast
5:35 AM 69.4 °F 68.0 °F 95% 30.17 in 3.0 mi SE 4.6 mph - N/A   Overcast
5:55 AM 69.1 °F 68.0 °F 96% 30.17 in 4.0 mi SE 5.8 mph - N/A   Overcast
6:15 AM 68.9 °F 67.6 °F 96% 30.17 in 4.0 mi ESE 5.8 mph - N/A   Overcast
6:35 AM 68.5 °F 67.1 °F 95% 30.17 in 4.0 mi SE 6.9 mph - N/A   Overcast
6:55 AM 68.2 °F 67.1 °F 96% 30.17 in 2.5 mi ESE 8.1 mph - N/A   Overcast
7:15 AM 68.2 °F 66.9 °F 96% 30.18 in 1.5 mi SE 5.8 mph - N/A   Overcast
7:35 AM 68.4 °F 67.1 °F 96% 30.18 in 2.5 mi Calm Calm - N/A   Overcast
7:55 AM 68.7 °F 67.1 °F 95% 30.20 in 3.0 mi Calm Calm - N/A   Overcast
8:15 AM 68.9 °F 67.3 °F 95% 30.21 in 3.0 mi Calm Calm - N/A   Overcast
8:35 AM 68.9 °F 67.3 °F 95% 30.22 in 3.0 mi Calm Calm - N/A   Overcast
8:55 AM 69.3 °F 67.6 °F 95% 30.23 in 4.0 mi NNE 3.5 mph - N/A   Overcast
9:15 AM 69.1 °F 67.5 °F 95% 30.23 in 2.5 mi NNE 3.5 mph - N/A   Overcast
9:35 AM 68.9 °F 67.5 °F 95% 30.24 in 1.5 mi NE 5.8 mph - N/A   Overcast
9:55 AM 68.9 °F 67.6 °F 96% 30.25 in 1.2 mi NE 4.6 mph - N/A   Overcast
10:15 AM 68.9 °F 67.5 °F 95% 30.25 in 1.0 mi ENE 6.9 mph - N/A   Overcast
10:35 AM 68.7 °F 67.3 °F 95% 30.24 in 1.2 mi ENE 6.9 mph - N/A   Overcast
10:55 AM 67.5 °F 65.7 °F 94% 30.24 in 3.0 mi ENE 8.1 mph 18.4 mph N/A   Light Drizzle
11:15 AM 67.6 °F 65.3 °F 92% 30.24 in 10.0 mi ENE 5.8 mph - N/A   Overcast
11:35 AM 67.6 °F 65.3 °F 92% 30.24 in 10.0 mi ENE 4.6 mph - N/A   Overcast
11:55 AM 68.0 °F 64.9 °F 90% 30.24 in 10.0 mi ENE 3.5 mph - N/A Rain Light Rain
12:15 PM 68.0 °F 64.9 °F 90% 30.23 in 10.0 mi ENE 5.8 mph - N/A   Overcast
12:35 PM 68.2 °F 64.4 °F 88% 30.22 in 10.0 mi East 4.6 mph - N/A   Mostly Cloudy
12:55 PM 68.5 °F 65.1 °F 89% 30.21 in 10.0 mi ENE 8.1 mph - N/A   Overcast
1:15 PM 69.1 °F 65.1 °F 87% 30.19 in 10.0 mi ENE 6.9 mph - N/A   Overcast
1:35 PM 68.9 °F 64.6 °F 86% 30.20 in 10.0 mi ENE 3.5 mph - N/A   Overcast
1:55 PM 68.9 °F 64.4 °F 86% 30.19 in 10.0 mi ENE 3.5 mph - N/A   Overcast
2:15 PM 69.1 °F 64.4 °F 85% 30.18 in 10.0 mi ENE 5.8 mph - N/A   Overcast
2:35 PM 68.9 °F 64.4 °F 86% 30.18 in 10.0 mi NNE 4.6 mph - N/A   Overcast
2:55 PM 69.1 °F 64.6 °F 86% 30.18 in 10.0 mi ENE 4.6 mph - N/A   Overcast
3:15 PM 69.3 °F 64.6 °F 85% 30.17 in 10.0 mi NE 4.6 mph - N/A   Mostly Cloudy
3:35 PM 69.3 °F 64.4 °F 84% 30.17 in 10.0 mi ENE 3.5 mph - N/A   Overcast
3:55 PM 69.1 °F 64.4 °F 85% 30.17 in 10.0 mi ENE 4.6 mph - N/A   Overcast
4:15 PM 69.1 °F 64.4 °F 85% 30.18 in 10.0 mi Calm Calm - N/A   Overcast
4:35 PM 69.1 °F 64.4 °F 85% 30.18 in 10.0 mi Calm Calm - N/A   Overcast
4:55 PM 69.1 °F 64.6 °F 86% 30.19 in 10.0 mi NNE 3.5 mph - N/A   Overcast
5:15 PM 68.9 °F 64.6 °F 86% 30.19 in 10.0 mi Calm Calm - N/A   Overcast
5:35 PM 63.3 °F 60.3 °F 90% 30.20 in 10.0 mi NW 9.2 mph - N/A   Overcast
5:55 PM 61.3 °F 58.8 °F 91% 30.21 in 10.0 mi NW 5.8 mph - N/A   Overcast
6:15 PM 60.1 °F 58.1 °F 93% 30.22 in 10.0 mi NW 5.8 mph - N/A   Overcast
6:35 PM 59.4 °F 57.2 °F 93% 30.22 in 10.0 mi NW 10.4 mph - N/A   Overcast
6:55 PM 59.0 °F 56.8 °F 93% 30.23 in 10.0 mi NW 8.1 mph - N/A   Overcast
7:15 PM 58.5 °F 56.7 °F 94% 30.24 in 10.0 mi NW 9.2 mph - N/A   Overcast
7:35 PM 58.1 °F 56.5 °F 94% 30.24 in 10.0 mi NNW 6.9 mph - N/A   Overcast
7:55 PM 57.7 °F 56.1 °F 94% 30.24 in 10.0 mi NNW 5.8 mph - N/A   Overcast
8:15 PM 57.2 °F 55.8 °F 95% 30.25 in 7.0 mi NNW 6.9 mph - N/A   Drizzle
8:35 PM 57.0 °F 55.6 °F 95% 30.25 in 10.0 mi NW 6.9 mph - N/A   Overcast
8:55 PM 56.7 °F 55.4 °F 96% 30.25 in 10.0 mi NNW 9.2 mph - N/A   Overcast
9:15 PM 56.7 °F 55.4 °F 96% 30.26 in 10.0 mi NNW 6.9 mph - N/A   Overcast
9:35 PM 56.5 °F 55.0 °F 95% 30.25 in 10.0 mi NNW 8.1 mph - N/A   Overcast
9:55 PM 56.3 °F 54.7 °F 94% 30.25 in 10.0 mi NNW 6.9 mph - N/A   Overcast
10:15 PM 55.9 °F 54.5 °F 95% 30.25 in 10.0 mi NNW 8.1 mph - N/A Rain Rain
10:35 PM 55.9 °F 54.5 °F 95% 30.25 in 10.0 mi NNW 4.6 mph - N/A   Overcast
10:55 PM 56.1 °F 54.5 °F 94% 30.25 in 10.0 mi NW 4.6 mph - N/A   Overcast
11:15 PM 55.9 °F 54.5 °F 95% 30.25 in 10.0 mi NNW 3.5 mph - N/A   Overcast
11:35 PM 55.8 °F 54.5 °F 96% 30.25 in 10.0 mi NNW 5.8 mph - N/A   Overcast
11:55 PM 55.8 °F 54.5 °F 96% 30.24 in 5.0 mi NNW 6.9 mph - N/A   Overcast